K0OHU-1 Weather Reports


Display with metric or nautical units.
time (UTC)temp
F
wind
direction
speed
MPH
gust
MPH
rain 1hr
in
rain 24hr
in
rain mn
in
humidity
%
barometer
mb
20141221144827 32 152 0.0 0.0 0.00 0.00 0.00 62 1004.6
20141221143318 32 155 0.0 0.0 0.00 0.00 0.00 62 1004.9
20141221141813 31 141 0.0 3.0 0.00 0.00 0.00 62 1004.4
20141221140314 31 84 0.0 0.0 0.00 0.00 0.00 63 1004.7
20141221134825 32 83 0.0 0.0 0.00 0.00 0.00 62 1005.3
20141221133319 32 84 0.0 0.0 0.00 0.00 0.00 61 1005.7
20141221131831 31 184 0.0 3.0 0.00 0.00 0.00 64 1005.6
20141221130313 31 91 0.0 0.0 0.00 0.00 0.00 63 1005.8
20141221124827 31 91 0.0 0.0 0.00 0.00 0.00 63 1005.4
20141221123317 30 91 0.0 2.0 0.00 0.00 0.00 66 1006.0
20141221121828 29 94 0.0 1.0 0.00 0.00 0.00 69 1006.4
20141221120333 28 222 0.0 0.0 0.00 0.00 0.00 69 1006.4
20141221114823 29 222 0.0 0.0 0.00 0.00 0.00 68 1006.5
20141221113332 29 222 0.0 0.0 0.00 0.00 0.00 68 1006.7
20141221111727 28 222 0.0 0.0 0.00 0.00 0.00 69 1007.2
20141221110228 28 179 0.0 1.0 0.00 0.00 0.00 69 1007.6
20141221104725 28 183 0.0 0.0 0.00 0.00 0.00 68 1007.6
20141221103240 29 183 0.0 0.0 0.00 0.00 0.00 66 1008.1
20141221101729 30 183 0.0 0.0 0.00 0.00 0.00 65 1008.0
20141221100235 31 183 0.0 0.0 0.00 0.00 0.00 63 1008.2
20141221094751 31 183 0.0 0.0 0.00 0.00 0.00 63 1008.5
20141221093254 32 183 0.0 0.0 0.00 0.00 0.00 63 1009.3
20141221091812 32 183 0.0 0.0 0.00 0.00 0.00 62 1009.7
20141221090254 33 148 0.0 2.0 0.00 0.00 0.00 60 1009.9
20141221084804 33 279 0.0 0.0 0.00 0.00 0.00 59 1009.7
20141221083258 35 279 0.0 0.0 0.00 0.00 0.00 55 1010.3
20141221081808 37 279 0.0 0.0 0.00 0.00 0.00 50 1010.2
20141221080307 39 279 0.0 1.0 0.00 0.00 0.00 46 1010.1
20141221074802 40 279 0.0 2.0 0.00 0.00 0.00 46 1010.1
20141221073311 41 263 0.0 0.0 0.00 0.00 0.00 46 1009.9
20141221071802 41 272 0.0 6.0 0.00 0.00 0.00 46 1010.2
20141221070305 40 298 3.0 10.0 0.00 0.00 0.00 48 1011.1
20141221064817 32 72 1.0 4.0 0.00 0.00 0.00 65 1011.3
20141221063307 30 75 0.0 0.0 0.00 0.00 0.00 67 1011.3
20141221061801 30 76 0.0 0.0 0.00 0.00 0.00 68 1011.5
20141221060301 31 75 0.0 0.0 0.00 0.00 0.00 68 1011.7
20141221054813 31 75 0.0 0.0 0.00 0.00 0.00 67 1011.6
20141221053305 32 76 0.0 0.0 0.00 0.00 0.00 66 1011.3
20141221050319 33 76 0.0 0.0 0.00 0.00 0.00 63 1011.1
20141221044814 34 76 0.0 0.0 0.00 0.00 0.00 61 1011.7
20141221043324 35 76 0.0 0.0 0.00 0.00 0.00 61 1011.5
20141221040319 35 75 0.0 0.0 0.00 0.00 0.00 61 1012.0
20141221034808 36 76 0.0 0.0 0.00 0.00 0.00 60 1012.4
20141221033320 36 76 0.0 0.0 0.00 0.00 0.00 60 1012.6
20141221031727 36 76 0.0 0.0 0.00 0.00 0.00 59 1012.3
20141221030237 36 76 0.0 0.0 0.00 0.00 0.00 60 1012.3
20141221024736 37 75 0.0 0.0 0.00 0.00 0.00 58 1012.5
20141221023247 37 76 0.0 0.0 0.00 0.00 0.00 58 1012.8
20141221021737 37 76 0.0 0.0 0.00 0.00 0.00 57 1012.7
20141221020242 37 76 0.0 0.0 0.00 0.00 0.00 57 1012.6
20141221014733 37 76 0.0 0.0 0.00 0.00 0.00 56 1012.0
20141221013243 37 76 0.0 0.0 0.00 0.00 0.00 54 1012.0
20141221011737 38 75 0.0 0.0 0.00 0.00 0.00 53 1012.2
20141221010238 39 76 0.0 0.0 0.00 0.00 0.00 51 1012.3
20141221004748 40 76 0.0 0.0 0.00 0.00 0.00 49 1012.3
20141221003241 40 76 0.0 2.0 0.00 0.00 0.00 49 1012.5
20141221001752 41 76 0.0 0.0 0.00 0.00 0.00 48 1012.3
20141221000253 41 76 0.0 0.0 0.00 0.00 0.00 46 1012.2
20141220234747 42 76 0.0 0.0 0.00 0.00 0.00 44 1012.6
20141220233257 44 76 0.0 0.0 0.00 0.00 0.00 43 1012.0
20141220231747 45 76 0.0 2.0 0.00 0.00 0.00 41 1012.2
20141220230252 46 76 0.0 0.0 0.00 0.00 0.00 38 1011.9
20141220224743 48 76 0.0 0.0 0.00 0.00 0.00 37 1012.0
20141220223254 48 75 0.0 0.0 0.00 0.00 0.00 36 1011.9
20141220221748 48 76 0.0 0.0 0.00 0.00 0.00 36 1012.0
20141220220249 48 75 0.0 0.0 0.00 0.00 0.00 36 1012.0
20141220214800 49 76 0.0 2.0 0.00 0.00 0.00 35 1011.9
20141220213253 49 75 0.0 0.0 0.00 0.00 0.00 35 1011.9
20141220211744 49 75 0.0 1.0 0.00 0.00 0.00 34 1011.8
20141220210247 50 65 0.0 2.0 0.00 0.00 0.00 33 1012.1
20141220204800 50 42 0.0 0.0 0.00 0.00 0.00 33 1012.1
20141220203251 51 38 0.0 5.0 0.00 0.00 0.00 33 1012.3
20141220201802 50 88 0.0 0.0 0.00 0.00 0.00 34 1012.2
20141220200247 49 88 0.0 2.0 0.00 0.00 0.00 34 1012.0
20141220194758 48 84 0.0 0.0 0.00 0.00 0.00 35 1012.4
20141220193308 47 84 0.0 4.0 0.00 0.00 0.00 36 1013.0
20141220191800 46 29 0.0 2.0 0.00 0.00 0.00 37 1013.4
20141220190301 45 46 0.0 2.0 0.00 0.00 0.00 38 1014.2
20141220184752 43 5 0.0 1.0 0.00 0.00 0.00 42 1013.5
20141220183307 41 291 0.0 1.0 0.00 0.00 0.00 45 1014.3
20141220181757 39 286 0.0 2.0 0.00 0.00 0.00 49 1014.4
20141220180258 38 264 0.0 1.0 0.00 0.00 0.00 54 1014.5
20141220174753 36 264 0.0 2.0 0.00 0.00 0.00 60 1015.1
20141220173304 34 263 0.0 0.0 0.00 0.00 0.00 64 1014.5
20141220171806 33 263 0.0 0.0 0.00 0.00 0.00 68 1014.9
20141220170307 32 263 0.0 0.0 0.00 0.00 0.00 70 1015.0
20141220164817 31 263 0.0 0.0 0.00 0.00 0.00 72 1014.9
20141220163310 30 263 0.0 0.0 0.00 0.00 0.00 73 1014.9
20141220161820 29 263 0.0 2.0 0.00 0.00 0.00 74 1014.6
20141220160320 29 263 0.0 0.0 0.00 0.00 0.00 75 1014.5
20141220154814 28 263 0.0 0.0 0.00 0.00 0.00 75 1014.2
20141220153323 28 263 0.0 0.0 0.00 0.00 0.00 75 1014.0
20141220151814 27 263 0.0 0.0 0.00 0.00 0.00 75 1013.7